When you browse on this site, cookies collect data to enhance your experience and personalize the content and advertising you see.
Visit our Privacy Policy to learn more. By continuing to use the site, you agree to this use of cookies and data.
  • In Czech Republic
  • List of Countries
  • For 7 days
  • Water Temperature
  • Satellite Maps
  • Weather Map
  • Weather Widgets
  • user-avatar
    Login

    Hourly Weather Brecon

    Today, 10 December, Monday

    Time Temperature Precipitation Wind Pressure Humidity
    00:00 +4°C° 0 mm 6 mps 752 mmHg 85%
    01:00 +4°C° 0 mm 6 mps 752 mmHg 86%
    02:00 +4°C° 0 mm 6 mps 752 mmHg 86%
    03:00 +5°C° 0 mm 5 mps 753 mmHg 87%
    04:00 +3°C° 0 mm 5 mps 753 mmHg 87%
    05:00 +3°C° 0 mm 5 mps 753 mmHg 88%
    06:00 +3°C° 0 mm 5 mps 754 mmHg 89%
    07:00 +4°C° 0 mm 4 mps 754 mmHg 89%
    08:00 +4°C° 0 mm 4 mps 754 mmHg 89%
    09:00 +4°C° 0 mm 4 mps 754 mmHg 89%
    10:00 +5°C° 0 mm 4 mps 754 mmHg 85%
    11:00 +6°C° 0 mm 4 mps 755 mmHg 80%
    12:00 +7°C° 0 mm 4 mps 755 mmHg 76%
    13:00 +8°C° 0 mm 3 mps 755 mmHg 78%
    14:00 +8°C° 0 mm 3 mps 755 mmHg 80%
    15:00 +7°C° 0 mm 2 mps 754 mmHg 82%
    16:00 +7°C° 0 mm 2 mps 754 mmHg 83%
    17:00 +7°C° 0 mm 2 mps 754 mmHg 85%
    18:00 +7°C° 0 mm 1 mps 754 mmHg 86%
    19:00 +6°C° 0 mm 2 mps 754 mmHg 87%
    20:00 +6°C° 0 mm 2 mps 754 mmHg 88%
    21:00 +6°C° 0 mm 2 mps 754 mmHg 89%
    22:00 +7°C° 0 mm 2 mps 754 mmHg 90%
    23:00 +7°C° 0 mm 2 mps 753 mmHg 91%

    Tomorrow, 11 December, Tuesday

    Time Temperature Precipitation Wind Pressure Humidity
    00:00 +7°C° 0 mm 3 mps 753 mmHg 92%
    01:00 +7°C° 0 mm 3 mps 753 mmHg 93%
    02:00 +7°C° 0 mm 3 mps 752 mmHg 94%
    03:00 +7°C° 0 mm 3 mps 752 mmHg 95%
    04:00 +7°C° 0 mm 3 mps 752 mmHg 95%
    05:00 +7°C° 0 mm 3 mps 751 mmHg 96%
    06:00 +7°C° 0 mm 3 mps 751 mmHg 96%
    07:00 +8°C° 0 mm 3 mps 751 mmHg 95%
    08:00 +8°C° 0 mm 3 mps 751 mmHg 95%
    09:00 +7°C° 0 mm 4 mps 751 mmHg 95%
    10:00 +7°C° 0 mm 4 mps 750 mmHg 92%
    11:00 +8°C° 0 mm 5 mps 750 mmHg 90%
    12:00 +8°C° 0 mm 5 mps 750 mmHg 88%
    13:00 +8°C° 0 mm 5 mps 749 mmHg 87%
    14:00 +8°C° 0 mm 5 mps 749 mmHg 87%
    15:00 +8°C° 0 mm 5 mps 748 mmHg 86%
    16:00 +8°C° 0 mm 6 mps 748 mmHg 88%
    17:00 +7°C° 0 mm 6 mps 747 mmHg 89%
    18:00 +7°C° 0 mm 6 mps 747 mmHg 90%
    19:00 +7°C° 0 mm 6 mps 746 mmHg 89%
    20:00 +7°C° 0 mm 6 mps 746 mmHg 89%
    21:00 +7°C° 0 mm 6 mps 746 mmHg 88%
    22:00 +7°C° 0.1 mm 6 mps 746 mmHg 88%
    23:00 +7°C° 0.1 mm 6 mps 746 mmHg 88%

    Day after tomorrow, 12 December, Wednesday

    Time Temperature Precipitation Wind Pressure Humidity
    00:00 +7°C° 0.1 mm 6 mps 746 mmHg 89%
    01:00 +7°C° 0.2 mm 6 mps 746 mmHg 89%
    02:00 +5°C° 0.2 mm 6 mps 746 mmHg 90%
    03:00 +6°C° 0.2 mm 5 mps 746 mmHg 91%
    04:00 +6°C° 0.1 mm 5 mps 746 mmHg 91%
    05:00 +6°C° 0.1 mm 5 mps 746 mmHg 92%
    06:00 +6°C° 0.1 mm 5 mps 746 mmHg 92%
    07:00 +6°C° 0.1 mm 5 mps 746 mmHg 92%
    08:00 +6°C° 0.1 mm 5 mps 747 mmHg 91%
    09:00 +6°C° 0.1 mm 5 mps 747 mmHg 91%
    10:00 +6°C° 0.2 mm 5 mps 747 mmHg 89%
    11:00 +5°C° 0.2 mm 6 mps 746 mmHg 88%
    12:00 +5°C° 0.2 mm 6 mps 746 mmHg 87%
    13:00 +5°C° 0.1 mm 6 mps 746 mmHg 86%
    14:00 +5°C° 0.1 mm 7 mps 745 mmHg 85%
    15:00 +5°C° 0.1 mm 7 mps 745 mmHg 84%
    16:00 +4°C° 0.1 mm 7 mps 745 mmHg 84%
    17:00 +4°C° 0.1 mm 7 mps 744 mmHg 84%
    18:00 +4°C° 0.1 mm 8 mps 744 mmHg 84%
    19:00 +4°C° 0.3 mm 8 mps 744 mmHg 84%
    20:00 +2°C° 0.3 mm 8 mps 743 mmHg 85%
    21:00 +2°C° 0.3 mm 8 mps 743 mmHg 85%
    22:00 +2°C° 0.5 mm 8 mps 742 mmHg 86%
    23:00 +2°C° 0.5 mm 8 mps 741 mmHg 87%

    13 December, Thursday

    Time Temperature Precipitation Wind Pressure Humidity
    00:00 +2°C° 0.5 mm 8 mps 741 mmHg 87%
    01:00 +2°C° 0.4 mm 8 mps 740 mmHg 88%
    02:00 +2°C° 0.4 mm 8 mps 739 mmHg 88%
    03:00 +2°C° 0.4 mm 8 mps 739 mmHg 88%
    04:00 +2°C° 0.6 mm 8 mps 738 mmHg 87%
    05:00 +1°C° 0.6 mm 9 mps 737 mmHg 87%
    06:00 +1°C° 0.6 mm 9 mps 737 mmHg 86%
    07:00 +1°C° 0.6 mm 9 mps 737 mmHg 86%
    08:00 +1°C° 0.6 mm 9 mps 736 mmHg 86%
    09:00 +1°C° 0.6 mm 10 mps 736 mmHg 85%
    10:00 +1°C° 0.8 mm 9 mps 736 mmHg 86%
    11:00 +1°C° 0.8 mm 9 mps 736 mmHg 86%
    12:00 +1°C° 0.8 mm 9 mps 736 mmHg 86%
    13:00 +1°C° 0.3 mm 9 mps 737 mmHg 86%
    14:00 +1°C° 0.3 mm 9 mps 737 mmHg 86%
    15:00 +1°C° 0.3 mm 9 mps 737 mmHg 86%
    16:00 0°C° 0.2 mm 8 mps 738 mmHg 87%
    17:00 0°C° 0.2 mm 8 mps 739 mmHg 87%
    18:00 0°C° 0.2 mm 8 mps 739 mmHg 87%
    19:00 0°C° 0.1 mm 7 mps 740 mmHg 87%
    20:00 0°C° 0.1 mm 7 mps 741 mmHg 88%
    21:00 0°C° 0.1 mm 7 mps 741 mmHg 88%
    22:00 +1°C° 0 mm 6 mps 742 mmHg 88%
    23:00 +1°C° 0 mm 5 mps 742 mmHg 88%

    14 December, Friday

    Time Temperature Precipitation Wind Pressure Humidity
    00:00 +1°C° 0 mm 5 mps 743 mmHg 89%
    01:00 0°C° 0 mm 5 mps 743 mmHg 89%
    02:00 0°C° 0 mm 4 mps 744 mmHg 89%
    03:00 0°C° 0 mm 4 mps 744 mmHg 89%
    04:00 0°C° 0 mm 4 mps 744 mmHg 89%
    05:00 +1°C° 0 mm 3 mps 745 mmHg 89%
    06:00 +1°C° 0 mm 3 mps 745 mmHg 89%
    07:00 +1°C° 0 mm 3 mps 745 mmHg 89%
    08:00 +1°C° 0 mm 3 mps 746 mmHg 90%
    09:00 0°C° 0 mm 4 mps 746 mmHg 90%
    10:00 +1°C° 0 mm 4 mps 746 mmHg 89%
    11:00 +3°C° 0 mm 4 mps 746 mmHg 89%
    12:00 +3°C° 0 mm 4 mps 746 mmHg 89%
    13:00 +4°C° 0.1 mm 4 mps 746 mmHg 90%
    14:00 +3°C° 0.1 mm 5 mps 745 mmHg 91%
    15:00 +5°C° 0.1 mm 5 mps 745 mmHg 92%
    16:00 +5°C° 0 mm 5 mps 745 mmHg 91%
    17:00 +5°C° 0 mm 5 mps 745 mmHg 91%
    18:00 +5°C° 0 mm 5 mps 745 mmHg 90%
    19:00 +5°C° 0 mm 6 mps 745 mmHg 91%
    20:00 +5°C° 0 mm 7 mps 745 mmHg 91%
    21:00 +6°C° 0 mm 8 mps 745 mmHg 92%
    22:00 +6°C° 0.5 mm 8 mps 744 mmHg 92%
    23:00 +7°C° 0.5 mm 9 mps 743 mmHg 92%

    15 December, Saturday

    Time Temperature Precipitation Wind Pressure Humidity
    00:00 +7°C° 0.5 mm 10 mps 743 mmHg 93%
    01:00 +8°C° 0.9 mm 9 mps 742 mmHg 93%
    02:00 +10°C° 0.9 mm 9 mps 741 mmHg 93%
    03:00 +10°C° 0.9 mm 9 mps 740 mmHg 93%
    04:00 +11°C° 0.2 mm 10 mps 740 mmHg 92%
    05:00 +11°C° 0.2 mm 10 mps 739 mmHg 91%
    06:00 +12°C° 0.2 mm 10 mps 739 mmHg 91%
    07:00 +12°C° 0.4 mm 10 mps 739 mmHg 90%
    08:00 +12°C° 0.4 mm 10 mps 739 mmHg 90%
    09:00 +12°C° 0.4 mm 11 mps 738 mmHg 90%
    10:00 +12°C° 1.5 mm 11 mps 738 mmHg 90%
    11:00 +12°C° 1.5 mm 12 mps 738 mmHg 89%
    12:00 +12°C° 1.5 mm 12 mps 737 mmHg 89%
    13:00 +11°C° 0.5 mm 11 mps 738 mmHg 86%
    14:00 +9°C° 0.5 mm 11 mps 738 mmHg 83%
    15:00 +8°C° 0.5 mm 10 mps 739 mmHg 80%
    16:00 +7°C° 0 mm 9 mps 740 mmHg 81%
    17:00 +6°C° 0 mm 7 mps 741 mmHg 82%
    18:00 +5°C° 0 mm 6 mps 742 mmHg 83%
    19:00 +5°C° 0.2 mm 6 mps 743 mmHg 84%
    20:00 +5°C° 0.2 mm 7 mps 743 mmHg 84%
    21:00 +5°C° 0.2 mm 7 mps 744 mmHg 84%
    22:00 +5°C° 0.4 mm 7 mps 744 mmHg 83%
    23:00 +5°C° 0.4 mm 7 mps 745 mmHg 82%
    Show more